Location: Harmony
(28.2000°N, 81.1500°W)
Time: 23:24:57
(UTC-05:00)

SJ 16-02 - Pass Details

Date: 18 December 2017
Orbit: 606 x 618 km, 75.0° (Epoch: 21 January)

Event Time Altitude Azimuth Distance (km) Brightness Sun altitude
Rises 18:14:14 0° 222° (SW) 2,851 6.1 -9.3°
Reaches altitude 10° 18:16:50 10° 237° (WSW) 1,952 5.4 -9.9°
Maximum altitude 18:20:17 23° 290° (WNW) 1,310 3.7 -10.6°
Drops below altitude 10° 18:23:47 10° 343° (NNW) 1,966 3.9 -11.3°
Sets 18:26:25 0° 358° (N) 2,876 4.6 -11.8°
